1498428000.05,50013,23.44,74004.0,6.39,5.01,4.31,0,*74
1498428001.29,50014,23.44,74006.0,6.39,5.01,4.33,0,*71
1498428002.49,50015,23.44,74004.5,6.37,4.97,4.27,0,*75
1498428003.72,50016,23.44,74006.8,6.39,5.01,4.33,0,*73
1498428004.93,50017,23.44,74006.3,6.41,5.05,4.37,0,*7D
1498428006.17,50018,23.44,74008.0,6.39,5.01,4.33,0,*7D
1498428007.4,50019,23.44,74006.3,6.37,4.97,4.31,0,*7E
1498428008.64,50020,23.44,74008.0,6.39,5.01,4.33,0,*76
1498428009.9,50021,23.44,74006.8,6.39,5.01,4.31,0,*75
1498428011.13,50022,23.44,74006.3,6.39,5.01,4.33,0,*74
1498428012.36,50023,23.44,74004.8,6.37,5.01,4.31,0,*79
1498428013.62,50024,23.44,74006.5,6.39,5.01,4.31,0,*70
1498428014.88,50025,23.44,74002.8,6.39,5.05,4.31,0,*75
1498428016.09,50026,23.44,74004.8,6.41,5.05,4.33,0,*7B
1498428017.33,50027,23.44,74006.3,6.39,5.01,4.33,0,*71
1498428018.56,50028,23.44,74006.8,6.39,5.01,4.33,0,*7E
1498428019.8,50029,23.44,74002.8,6.39,5.01,4.33,0,*7F
1498428021.03,50030,23.44,74006.0,6.39,5.01,4.23,0,*76
1498428022.26,50031,23.44,74004.3,6.39,5.01,4.27,0,*73
1498428023.46,50032,23.44,74008.3,6.41,5.05,4.27,0,*7B
1498428024.69,50033,23.44,74004.8,6.43,5.05,4.27,0,*78
1498428025.89,50034,23.44,74006.8,6.41,4.97,4.23,0,*73
1498428027.09,50035,23.44,74004.0,6.41,5.05,4.27,0,*7C
1498428028.29,50036,23.44,74006.5,6.41,5.05,4.27,0,*7F
1498428029.5,50037,23.44,74004.3,6.41,5.05,4.33,0,*7B
1498428030.68,50038,23.44,74006.5,6.41,5.07,4.37,0,*72
1498428031.94,50039,23.44,74004.8,6.39,5.05,4.31,0,*78
1498428033.15,50040,23.44,74008.5,6.43,5.07,4.37,0,*7F
1498428034.33,50041,23.44,74004.5,6.41,5.07,4.33,0,*78
1498428035.5,50042,23.44,74004.8,6.41,5.07,4.27,0,*7E
1498428036.67,50043,23.44,74006.3,6.41,5.07,4.27,0,*7F
1498428037.9,50044,23.44,74004.0,6.39,5.01,4.23,0,*75
1498428039.11,50045,23.44,74008.5,6.41,5.05,4.23,0,*7F
1498428040.31,50046,23.44,74002.8,6.41,5.05,4.27,0,*78
1498428041.51,50047,23.44,74004.5,6.41,4.97,4.19,0,*7E
1498428042.71,50048,23.44,74004.0,6.41,4.97,4.19,0,*71
1498428043.91,50049,23.44,74006.3,6.41,4.97,4.19,0,*70
1498428045.11,50050,23.44,74008.0,6.41,5.05,4.23,0,*7B
1498428046.32,50051,23.44,74004.3,6.41,5.05,4.23,0,*7A
1498428047.52,50052,23.44,74006.5,6.41,4.97,4.19,0,*7A
1498428048.72,50053,23.44,74008.3,6.41,4.97,4.19,0,*7B
1498428049.92,50054,23.44,74006.8,6.41,4.97,4.11,0,*74
1498428051.12,50055,23.44,74006.5,6.41,4.97,4.11,0,*75
1498428052.32,50056,23.44,74006.8,6.41,5.05,4.19,0,*74
1498428053.52,50057,23.44,74004.0,6.41,4.97,4.19,0,*7F
1498428054.73,50058,23.44,74004.3,6.41,5.05,4.23,0,*73
1498428055.93,50059,23.44,74004.5,6.41,5.05,4.23,0,*72
1498428057.1,50060,23.44,74004.5,6.41,5.07,4.27,0,*7E
1498428058.28,50061,23.44,74006.0,6.41,5.07,4.23,0,*7B
1498428059.45,50062,23.44,74004.3,6.41,5.07,4.23,0,*78
1498428060.63,50063,23.44,74004.8,6.41,5.07,4.23,0,*79
1498428061.83,50064,23.44,74004.8,6.41,5.05,4.27,0,*78
1498428063.03,50065,23.44,74002.5,6.41,4.97,4.23,0,*77
1498428064.23,50066,23.44,74006.0,6.41,5.05,4.11,0,*7F
1498428065.44,50067,23.44,74006.0,6.41,4.97,4.23,0,*75
1498428066.64,50068,23.44,74002.3,6.41,5.05,4.19,0,*79
1498428067.84,50069,23.44,74006.3,6.41,5.05,4.11,0,*70
1498428069.05,50070,23.44,74004.3,6.41,5.05,4.33,0,*78
1498428070.22,50071,23.44,74004.0,6.41,5.07,4.23,0,*7A
1498428071.4,50072,23.44,74004.3,6.41,5.07,4.23,0,*79
1498428072.57,50073,23.44,74006.3,6.41,5.07,4.23,0,*78
1498428073.77,50074,23.44,74004.0,6.41,4.97,4.11,0,*76
1498428074.97,50075,23.44,74006.3,6.41,4.93,4.19,0,*7B
1498428076.17,50076,23.44,74004.3,6.41,4.93,4.19,0,*78
1498428077.38,50077,23.44,74004.0,6.41,5.05,4.27,0,*7A
1498428078.55,50078,23.44,74006.3,6.41,5.07,4.27,0,*77
1498428079.73,50079,23.44,74004.5,6.41,5.15,4.37,0,*74
1498428080.94,50080,23.44,74004.5,6.39,5.11,4.33,0,*7D
1498428082.12,50081,23.44,74004.5,6.41,5.07,4.33,0,*74
1498428083.32,50082,23.44,74006.5,6.41,5.05,4.23,0,*74
1498428084.52,50083,23.44,74004.5,6.41,5.05,4.27,0,*71
1498428085.73,50084,23.44,74010.3,6.41,5.05,4.37,0,*77
1498428086.91,50085,23.44,74006.3,6.41,5.15,4.37,0,*77
1498428088.09,50086,23.44,74010.5,6.41,5.15,4.45,0,*71
1498428089.29,50087,23.44,74008.0,6.41,4.97,4.23,0,*7B
1498428090.49,50088,23.44,74010.5,6.41,4.93,4.11,0,*71
1498428091.69,50089,23.44,74008.3,6.41,4.93,4.19,0,*78
1498428092.87,50090,23.44,74010.5,6.41,4.89,4.11,0,*73
1498428094.1,50091,23.44,74008.8,6.39,4.75,4.07,0,*79
1498428095.31,50092,23.44,74004.0,6.39,4.89,4.23,0,*7F
1498428096.51,50093,23.44,74002.3,6.39,4.89,4.23,0,*7E
1498428097.77,50094,23.44,74002.5,6.39,5.01,4.31,0,*7B
1498428098.98,50095,23.44,74004.3,6.41,5.05,4.37,0,*77
1498428100.16,50096,23.44,74006.8,6.41,5.15,4.37,0,*75
1498428101.34,50097,23.44,74002.8,6.41,5.15,4.37,0,*74
1498428102.52,50098,23.44,73998.8,6.41,5.15,4.45,0,*7E
1498428103.72,50099,23.44,74000.5,6.43,5.07,4.45,0,*7E
1498428104.89,50100,23.44,74002.5,6.41,5.07,4.49,0,*71
1498428106.07,50101,23.44,74000.0,6.41,5.15,4.45,0,*7F
1498428107.24,50102,23.44,74002.3,6.41,5.07,4.45,0,*7F
1498428108.48,50103,23.44,74002.8,6.39,5.05,4.33,0,*72
1498428109.72,50104,23.44,74002.0,6.39,4.93,4.33,0,*7B
1498428110.93,50105,23.44,74000.0,6.41,5.05,4.37,0,*7F
1498428112.14,50106,23.44,74000.5,6.41,5.05,4.37,0,*7C
1498428113.35,50107,23.44,74002.5,6.41,5.05,4.37,0,*7D
1498428114.55,50108,23.44,74002.0,6.41,5.05,4.45,0,*77
1498428115.73,50109,23.44,74002.5,6.41,5.07,4.45,0,*74
1498428116.97,50110,23.44,74000.3,6.39,5.01,4.41,0,*71
1498428118.17,50111,23.44,74002.8,6.39,4.85,4.33,0,*78
1498428119.41,50112,23.44,74002.3,6.39,4.75,4.07,0,*73
1498428120.64,50113,23.44,74000.5,6.39,4.75,4.07,0,*72
1498428121.87,50114,23.44,74004.0,6.39,4.79,4.15,0,*7A
1498428123.06,50115,23.44,74004.0,6.37,4.79,4.11,0,*71
1498428124.27,50116,23.44,74002.0,6.39,4.89,4.23,0,*72
1498428125.5,50117,23.44,74002.8,6.37,4.97,4.31,0,*71
1498428126.73,50118,23.44,74002.8,6.39,5.01,4.41,0,*79
1498428127.94,50119,23.38,73998.8,6.39,5.11,4.41,0,*79
1498428129.15,50120,23.44,74002.8,6.37,5.05,4.41,0,*78
1498428130.35,50121,23.44,74002.8,6.39,5.11,4.45,0,*76
1498428131.53,50122,23.44,74002.8,6.37,5.11,4.49,0,*77
1498428132.74,50123,23.44,74000.3,6.39,5.11,4.41,0,*70
1498428133.95,50124,23.44,74002.3,6.39,5.11,4.41,0,*77
1498428135.15,50125,23.44,74002.0,6.39,5.11,4.45,0,*72
1498428136.38,50126,23.44,74004.0,6.39,5.05,4.45,0,*74
1498428137.59,50127,23.44,74000.3,6.39,5.11,4.41,0,*74
1498428138.83,50128,23.44,74000.5,6.39,5.05,4.33,0,*7B
1498428140.01,50129,23.44,74002.3,6.41,5.07,4.37,0,*73
1498428141.24,50130,23.44,74002.5,6.39,5.05,4.33,0,*72
1498428142.48,50131,23.44,74000.8,6.39,4.93,4.23,0,*7C
1498428143.68,50132,23.44,74000.8,6.39,4.89,4.23,0,*74
1498428144.91,50133,23.44,74000.3,6.39,4.93,4.23,0,*7E
1498428146.14,50134,23.44,74002.3,6.37,4.97,4.31,0,*70
1498428147.38,50135,23.44,74002.8,6.39,5.01,4.33,0,*73
1498428148.61,50136,23.44,73998.8,6.39,5.01,4.33,0,*70
1498428149.82,50137,23.44,74002.5,6.39,5.11,4.41,0,*75
1498428151.03,50138,23.44,74004.3,6.37,5.01,4.41,0,*75
1498428152.24,50139,23.44,74000.0,6.39,5.11,4.37,0,*7A
1498428153.42,50140,23.44,74004.3,6.37,5.07,4.41,0,*7C
1498428154.62,50141,23.44,74000.8,6.37,5.01,4.37,0,*7A
1498428155.85,50142,23.44,74000.8,6.37,4.97,4.31,0,*71
1498428157.06,50143,23.44,74000.3,6.39,5.11,4.45,0,*72
1498428158.24,50144,23.44,74002.3,6.37,5.19,4.53,0,*74
1498428159.45,50145,23.44,74002.3,6.37,5.01,4.37,0,*7E
1498428160.71,50146,23.44,74002.3,6.39,5.05,4.31,0,*71
1498428161.9,50147,23.44,74000.5,6.37,4.97,4.27,0,*73
1498428163.14,50148,23.44,74000.0,6.39,5.05,4.33,0,*7D
1498428164.37,50149,23.44,74002.0,6.37,4.97,4.31,0,*7A
1498428165.6,50150,23.44,74000.5,6.37,5.01,4.31,0,*7C
1498428166.84,50151,23.44,74002.5,6.39,5.05,4.41,0,*70
1498428168.07,50152,23.44,74002.0,6.39,5.05,4.41,0,*73
1498428169.25,50153,23.38,73998.5,6.37,5.15,4.41,0,*7D
1498428170.43,50154,23.44,74002.8,6.41,5.11,4.49,0,*77
1498428171.6,50155,23.44,74002.8,6.37,5.23,4.57,0,*79
1498428172.78,50156,23.44,74000.5,6.37,5.19,4.53,0,*77
1498428173.99,50157,23.44,73998.5,6.39,5.15,4.45,0,*73
1498428175.17,50158,23.44,74000.5,6.37,5.11,4.41,0,*72
1498428176.34,50159,23.44,74004.8,6.37,5.19,4.49,0,*73
1498428177.51,50160,23.44,74002.0,6.37,5.07,4.49,0,*76
1498428178.69,50161,23.44,74000.3,6.37,5.19,4.49,0,*78
1498428179.86,50162,23.44,74000.5,6.37,5.11,4.49,0,*73
1498428181.03,50163,23.44,74002.0,6.37,5.11,4.49,0,*72
1498428182.21,50164,23.44,74006.0,6.37,5.11,4.49,0,*75
1498428183.39,50165,23.38,73998.3,6.37,5.19,4.53,0,*77
1498428184.58,50166,23.44,74000.8,6.37,5.29,4.59,0,*7D
1498428185.76,50167,23.44,74002.8,6.37,5.23,4.53,0,*7C
1498428186.93,50168,23.44,74000.8,6.37,5.07,4.41,0,*76
1498428188.14,50169,23.44,74002.5,6.37,5.01,4.37,0,*70
1498428189.37,50170,23.44,74004.5,6.37,4.97,4.31,0,*70
1498428190.55,50171,23.44,74000.3,6.37,5.19,4.41,0,*71
1498428191.76,50172,23.44,74002.8,6.39,5.23,4.57,0,*72
1498428192.94,50173,23.44,74002.5,6.37,5.23,4.53,0,*79
1498428194.12,50174,23.44,74000.8,6.37,5.11,4.41,0,*7C
1498428195.3,50175,23.44,74000.3,6.37,5.19,4.41,0,*75
1498428196.48,50176,23.44,74000.8,6.37,5.19,4.49,0,*7E
1498428197.68,50177,23.44,74000.3,6.39,5.23,4.53,0,*73
1498428198.86,50178,23.38,74002.8,6.37,5.19,4.53,0,*7B
1498428200.04,50179,23.44,74000.5,6.37,5.11,4.53,0,*72
1498428201.24,50180,23.44,74004.5,6.37,5.23,4.59,0,*7F
1498428202.44,50181,23.44,74004.3,6.37,5.23,4.59,0,*7E
1498428203.63,50182,23.44,74002.8,6.37,5.29,4.59,0,*77
1498428204.84,50183,23.44,74002.8,6.37,5.23,4.63,0,*75
1498428206.01,50184,23.44,74000.3,6.37,5.19,4.49,0,*73
1498428207.22,50185,23.44,74002.8,6.37,5.01,4.37,0,*72
1498428208.48,50186,23.44,74002.0,6.35,4.97,4.31,0,*7B
1498428209.66,50187,23.44,74002.8,6.37,5.19,4.41,0,*78
1498428210.89,50188,23.38,73998.8,6.37,4.97,4.31,0,*77
1498428212.13,50189,23.44,74002.0,6.35,5.01,4.37,0,*7C
1498428213.31,50190,23.38,74000.3,6.37,5.19,4.53,0,*7D
1498428214.48,50191,23.44,74000.3,6.37,5.11,4.49,0,*7F
1498428215.66,50192,23.44,74002.3,6.37,5.11,4.53,0,*77
1498428216.87,50193,23.38,74000.0,6.35,5.11,4.53,0,*74
1498428218.04,50194,23.44,74006.3,6.37,5.11,4.53,0,*71
1498428219.25,50195,23.38,74002.5,6.35,5.11,4.53,0,*72
1498428220.48,50196,23.44,74006.0,6.35,5.01,4.49,0,*7B
1498428221.72,50197,23.44,74002.5,6.35,5.01,4.37,0,*73
1498428222.95,50198,23.44,74004.3,6.35,5.01,4.49,0,*75
1498428224.12,50199,23.38,74000.0,6.37,5.11,4.49,0,*77
1498428225.35,50200,23.44,74006.0,6.35,5.11,4.59,0,*77
1498428226.58,50201,23.38,74002.0,6.31,5.05,4.49,0,*76
1498428227.82,50202,23.38,74000.3,6.35,4.97,4.37,0,*72
1498428229.02,50203,23.44,74004.3,6.31,4.81,4.27,0,*71
1498428230.25,50204,23.38,74002.8,6.35,4.97,4.49,0,*7D
1498428231.48,50205,23.44,74004.5,6.35,4.93,4.49,0,*78
1498428232.71,50206,23.44,74002.5,6.31,5.05,4.57,0,*7E
1498428233.95,50207,23.44,74004.3,6.31,5.05,4.57,0,*7F
1498428235.2,50208,23.44,74006.0,6.31,5.05,4.59,0,*7E
1498428236.44,50209,23.38,74002.0,6.35,5.07,4.63,0,*70
1498428237.67,50210,23.44,74006.3,6.31,4.97,4.57,0,*73
1498428238.88,50211,23.38,74000.0,6.35,4.89,4.49,0,*76
1498428240.06,50212,23.44,74004.0,6.29,4.89,4.41,0,*70
1498428241.29,50213,23.44,74004.8,6.31,5.07,4.59,0,*76
1498428242.52,50214,23.44,74004.5,6.31,5.07,4.67,0,*7C
1498428243.77,50215,23.44,74002.5,6.31,4.97,4.59,0,*78
1498428245.03,50216,23.38,74002.5,6.31,4.97,4.59,0,*7B
1498428246.29,50217,23.44,74004.3,6.31,5.05,4.59,0,*70
1498428247.54,50218,23.38,74000.0,6.31,4.97,4.59,0,*75
1498428248.8,50219,23.44,74006.8,6.35,5.01,4.63,0,*77
1498428250.04,50220,23.44,74006.5,6.29,5.05,4.67,0,*70
1498428251.3,50221,23.44,74004.5,6.31,4.97,4.67,0,*72
1498428252.53,50222,23.38,74000.8,6.29,5.05,4.67,0,*72
1498428253.74,50223,23.38,74002.3,6.29,5.11,4.67,0,*76
1498428254.97,50224,23.38,74000.0,6.27,5.11,4.67,0,*7F
1498428256.21,50225,23.38,74002.8,6.27,5.11,4.79,0,*71
1498428257.42,50226,23.38,74000.0,6.29,5.11,4.75,0,*70
1498428258.66,50227,23.38,74000.3,6.27,5.11,4.75,0,*7F
1498428259.87,50228,23.38,74004.3,6.27,5.23,4.89,0,*72
1498428261.07,50229,23.44,74006.0,6.27,5.15,4.81,0,*7E
1498428262.28,50230,23.38,74004.3,6.27,5.15,4.89,0,*7E
1498428263.45,50231,23.44,74004.3,6.29,5.11,4.89,0,*75
1498428264.66,50232,23.38,74000.8,6.29,5.05,4.89,0,*73
1498428265.89,50233,23.38,74002.0,6.27,5.05,4.81,0,*74
1498428267.12,50234,23.38,74002.0,6.27,4.93,4.81,0,*7D
1498428268.36,50235,23.38,74004.0,6.27,5.01,4.89,0,*7E
1498428269.59,50236,23.38,74004.5,6.27,5.05,4.89,0,*79
1498428270.83,50237,23.38,74004.5,6.27,5.01,4.89,0,*7C
1498428272.04,50238,23.44,74004.5,6.27,5.11,4.89,0,*72
1498428273.25,50239,23.38,74002.0,6.29,5.23,5.01,0,*7D
1498428274.48,50240,23.38,74004.5,6.27,5.15,4.93,0,*72
1498428275.7,50241,23.44,74004.0,6.29,5.23,5.01,0,*72
1498428276.93,50242,23.44,74004.3,6.27,5.33,5.05,0,*7A
1498428278.17,50243,23.44,74006.5,6.27,5.33,5.05,0,*7B
1498428279.41,50244,23.38,74002.8,6.27,5.33,5.05,0,*7C
1498428280.66,50245,23.38,74000.3,6.27,5.27,5.05,0,*78
1498428281.87,50246,23.44,74004.8,6.27,5.33,5.11,0,*7B
1498428283.09,50247,23.44,74002.0,6.27,5.33,5.11,0,*7A
1498428284.3,50248,23.44,74000.8,6.27,5.33,5.15,0,*71
1498428285.53,50249,23.38,74000.8,6.27,5.27,5.15,0,*75
1498428286.71,50250,23.38,73998.5,6.29,5.33,5.15,0,*76
1498428287.93,50251,23.38,73998.8,6.27,5.37,5.23,0,*78
1498428289.14,50252,23.38,74000.3,6.31,5.49,5.19,0,*7C
1498428290.32,50253,23.44,74000.3,6.29,5.45,5.23,0,*71
1498428291.53,50254,23.38,73998.3,6.27,5.37,5.23,0,*7D
1498428292.71,50255,23.38,73996.5,6.29,5.45,5.23,0,*77
1498428293.9,50256,23.38,73998.8,6.29,5.37,5.23,0,*71
1498428295.12,50257,23.38,73994.3,6.27,5.45,5.27,0,*7F
1498428296.3,50258,23.38,73992.5,6.29,5.49,5.33,0,*77
1498428297.51,50259,23.38,73994.5,6.27,5.45,5.33,0,*74
1498428298.7,50260,23.38,73992.5,6.29,5.45,5.27,0,*75
1498428299.92,50261,23.38,73992.8,6.27,5.37,5.23,0,*7B
1498428301.13,50262,23.38,73992.5,6.27,5.37,5.15,0,*7D
1498428302.33,50263,23.38,73994.8,6.27,5.45,5.15,0,*79
1498428303.51,50264,23.44,74000.8,6.29,5.37,5.11,0,*71
1498428304.72,50265,23.38,73998.5,6.27,5.37,5.11,0,*7E
1498428305.95,50266,23.38,74000.5,6.29,5.27,5.05,0,*77
1498428307.16,50267,23.38,73996.5,6.29,5.33,5.01,0,*77
1498428308.33,50268,23.38,74000.8,6.29,5.11,4.81,0,*71
1498428309.57,50269,23.38,74000.3,6.27,5.15,4.79,0,*7D
1498428310.74,50270,23.38,74002.0,6.29,5.23,4.81,0,*79
1498428311.98,50271,23.38,74002.8,6.29,5.05,4.75,0,*77
1498428313.21,50272,23.38,74002.8,6.29,5.05,4.79,0,*78
1498428314.48,50273,23.38,74002.8,6.27,5.05,4.75,0,*7B
1498428315.69,50274,23.38,74000.0,6.29,5.15,4.79,0,*7F
1498428316.86,50275,23.38,74000.5,6.29,5.15,4.89,0,*71
1498428318.07,50276,23.38,74000.3,6.27,5.23,4.89,0,*79
1498428319.24,50277,23.38,74000.5,6.29,5.11,4.81,0,*7F
1498428320.42,50278,23.38,74000.3,6.29,5.23,4.81,0,*71
1498428321.62,50279,23.38,73996.5,6.27,5.15,4.81,0,*7B
1498428322.83,50280,23.38,74002.0,6.27,5.23,4.89,0,*70
1498428324.03,50281,23.44,74006.3,6.27,5.15,4.89,0,*74
1498428325.28,50282,23.38,74002.5,6.27,5.33,5.01,0,*72
1498428326.49,50283,23.38,74000.3,6.29,5.33,5.01,0,*7D
1498428327.71,50284,23.38,74000.3,6.29,5.27,4.93,0,*75
1498428328.91,50285,23.38,74002.3,6.29,5.27,4.89,0,*7F
1498428330.1,50286,23.38,74006.3,6.29,5.27,4.89,0,*7C
1498428331.27,50287,23.38,74006.0,6.29,5.15,4.81,0,*74
1498428332.51,50288,23.38,74004.3,6.27,5.15,4.75,0,*7E
1498428333.72,50289,23.38,74002.5,6.29,5.23,4.79,0,*78
1498428334.89,50290,23.38,74004.8,6.29,5.23,4.81,0,*77
1498428336.12,50291,23.38,74000.3,6.27,5.27,4.81,0,*7C
1498428337.31,50292,23.38,74004.0,6.29,5.27,4.81,0,*71
1498428338.55,50293,23.38,74000.3,6.27,5.23,4.79,0,*7D
1498428339.75,50294,23.38,74004.8,6.29,5.15,4.75,0,*7D
1498428340.95,50295,23.38,74004.0,6.29,5.15,4.67,0,*7F
1498428342.16,50296,23.38,74004.5,6.29,5.23,4.67,0,*79
1498428343.39,50297,23.38,74006.8,6.31,5.05,4.49,0,*79
1498428344.59,50298,23.44,74006.3,6.29,4.67,4.11,0,*77
1498428345.8,50299,23.38,74004.5,6.29,4.31,3.81,0,*7B
1498428346.98,50300,23.38,74000.8,6.29,4.57,4.07,0,*73
1498428348.18,50301,23.38,74004.0,6.29,4.79,4.19,0,*71
1498428349.41,50302,23.38,74004.3,6.27,4.79,4.23,0,*75
1498428350.6,50303,23.38,74000.0,6.25,4.37,3.89,0,*7B
1498428351.8,50304,23.38,74002.0,6.25,4.49,4.01,0,*72
1498428353.02,50305,23.38,74000.3,6.23,4.37,3.81,0,*73
1498428354.21,50306,23.38,74000.5,6.25,4.41,3.93,0,*74
1498428355.45,50307,23.38,73998.8,6.23,4.71,4.07,0,*7A
1498428356.68,50308,23.38,73996.0,6.23,4.85,4.31,0,*7B
1498428357.92,50309,23.38,74002.8,6.23,4.97,4.53,0,*7D
1498428359.16,50310,23.38,74002.5,6.23,4.97,4.53,0,*75
1498428360.37,50311,23.38,74002.8,6.23,4.89,4.53,0,*7B
1498428361.63,50312,23.38,74000.3,6.23,4.97,4.63,0,*74
1498428362.84,50313,23.38,73996.5,6.23,5.11,4.85,0,*72
1498428364.08,50314,23.44,74000.5,6.23,5.07,4.79,0,*71
1498428365.31,50315,23.38,74000.5,6.23,5.11,4.79,0,*77
1498428366.51,50316,23.38,74002.8,6.23,5.29,4.85,0,*7C
1498428367.72,50317,23.38,74000.3,6.23,5.29,4.85,0,*7D
1498428368.93,50318,23.44,74006.5,6.23,5.19,4.85,0,*71
1498428370.15,50319,23.38,74002.0,6.27,5.27,4.89,0,*75
1498428371.37,50320,23.38,74000.0,6.23,5.19,4.85,0,*7A
1498428372.6,50321,23.38,74000.0,6.23,5.29,4.97,0,*7B
1498428373.84,50322,23.38,74000.5,6.23,5.33,5.01,0,*7D
1498428375.06,50323,23.38,74000.3,6.23,5.33,5.07,0,*7A
1498428376.25,50324,23.38,74002.5,6.25,5.33,5.23,0,*7D
1498428377.44,50325,23.38,74002.5,6.25,5.33,5.11,0,*7D
1498428378.63,50326,23.38,74002.0,6.25,5.33,5.07,0,*79
1498428379.85,50327,23.38,74002.8,6.23,5.33,5.07,0,*7E
1498428381.09,50328,23.38,74000.8,6.23,5.33,5.01,0,*77
1498428382.33,50329,23.38,74006.5,6.23,5.33,5.01,0,*76
1498428383.55,50330,23.38,74004.5,6.23,5.41,5.19,0,*72
1498428384.74,50331,23.38,74006.5,6.25,5.33,5.11,0,*78
1498428385.93,50332,23.38,74004.8,6.25,5.41,5.11,0,*7E
1498428387.14,50333,23.38,74006.5,6.23,5.33,5.19,0,*74
1498428388.36,50334,23.38,74006.3,6.23,5.41,5.07,0,*79
1498428389.57,50335,23.44,74006.0,6.23,5.41,5.19,0,*77
1498428390.76,50336,23.38,74000.3,6.25,5.41,5.11,0,*7A
1498428391.98,50337,23.38,74002.3,6.23,5.23,5.07,0,*7E
1498428393.19,50338,23.38,74004.8,6.25,5.29,5.01,0,*7B
1498428394.4,50339,23.38,74000.0,6.23,5.29,5.07,0,*7A
1498428395.61,50340,23.38,74000.8,6.23,5.23,5.07,0,*7E
1498428396.8,50341,23.38,74004.5,6.25,5.33,5.07,0,*78
1498428398.01,50342,23.38,74004.3,6.23,5.45,5.19,0,*73
1498428399.22,50343,23.38,74002.8,6.23,5.45,5.11,0,*7A
1498428400.43,50344,23.38,74004.0,6.23,5.41,5.11,0,*79
1498428401.63,50345,23.38,74000.5,6.25,5.41,5.23,0,*7F
1498428402.84,50346,23.38,74002.3,6.23,5.45,5.23,0,*7E
1498428404.06,50347,23.38,74002.5,6.23,5.51,5.29,0,*70
1498428405.24,50348,23.38,73996.5,6.25,5.45,5.29,0,*7C
1498428406.44,50349,23.38,73998.5,6.23,5.45,5.29,0,*7B
1498428407.62,50350,23.38,74000.5,6.25,5.45,5.33,0,*7E
1498428408.82,50351,23.38,74000.8,6.23,5.45,5.41,0,*7C
1498428410.05,50352,23.38,73998.5,6.23,5.51,5.41,0,*7A
1498428411.25,50353,23.38,74002.0,6.25,5.51,5.45,0,*79
1498428412.48,50354,23.38,74000.3,6.23,5.51,5.41,0,*7C
1498428413.65,50355,23.38,74002.3,6.25,5.45,5.41,0,*7E
1498428414.86,50356,23.44,74006.3,6.25,5.51,5.41,0,*78
1498428416.09,50357,23.38,74000.8,6.23,5.51,5.41,0,*7F
1498428417.31,50358,23.38,74002.3,6.23,5.51,5.41,0,*70
1498428418.54,50359,23.38,74000.8,6.25,5.51,5.51,0,*76
1498428419.78,50360,23.38,74000.5,6.23,5.59,5.51,0,*72
1498428421.01,50361,23.38,74002.8,6.25,5.55,5.51,0,*79
1498428422.22,50362,23.38,74000.0,6.23,5.67,5.59,0,*75
1498428423.41,50363,23.38,74000.8,6.25,5.71,5.67,0,*78
1498428424.6,50364,23.38,74004.3,6.25,5.67,5.59,0,*75
1498428425.83,50365,23.38,74000.5,6.23,5.59,5.55,0,*73
1498428427.01,50366,23.38,74002.3,6.29,5.63,5.63,0,*76
1498428428.23,50367,23.38,74002.3,6.27,5.63,5.63,0,*79
1498428429.42,50368,23.38,74002.5,6.25,5.63,5.59,0,*7D
1498428430.63,50369,23.38,74000.3,6.25,5.67,5.55,0,*74
1498428431.84,50370,23.38,74002.5,6.25,5.55,5.59,0,*71
1498428433.05,50371,23.38,74000.3,6.27,5.63,5.59,0,*77
1498428434.26,50372,23.38,74004.8,6.27,5.63,5.59,0,*74
1498428435.45,50373,23.38,74006.8,6.29,5.63,5.59,0,*7B
1498428436.63,50374,23.38,74000.0,6.29,5.71,5.63,0,*76
1498428437.84,50375,23.38,74000.8,6.27,5.59,5.59,0,*7A
1498428439.02,50376,23.38,74002.0,6.29,5.63,5.59,0,*7E
1498428440.23,50377,23.38,74002.5,6.27,5.71,5.63,0,*7B
1498428441.44,50378,23.38,74006.5,6.27,5.71,5.63,0,*74
1498428442.67,50379,23.38,74002.5,6.31,5.73,5.67,0,*74
1498428443.89,50380,23.38,74000.0,6.27,5.63,5.59,0,*79
1498428445.07,50381,23.38,74006.0,6.29,5.59,5.59,0,*7F
1498428446.28,50382,23.38,74000.3,6.31,5.67,5.67,0,*75
1498428447.49,50383,23.38,74000.3,6.27,5.59,5.63,0,*7A
1498428448.67,50384,23.38,74002.0,6.29,5.63,5.63,0,*7A
1498428449.88,50385,23.38,74002.8,6.31,5.63,5.67,0,*76
1498428451.09,50386,23.38,74006.3,6.31,5.63,5.63,0,*71
1498428452.27,50387,23.38,74002.5,6.29,5.63,5.59,0,*70
1498428453.48,50388,23.38,74000.8,6.35,5.67,5.71,0,*7C
1498428454.69,50389,23.38,74002.8,6.31,5.67,5.67,0,*7E
1498428455.91,50390,23.38,74002.0,6.31,5.67,5.67,0,*76
1498428457.11,50391,23.38,74004.8,6.31,5.63,5.63,0,*77
1498428458.32,50392,23.38,74002.5,6.29,5.73,5.63,0,*7C
1498428459.55,50393,23.38,74000.8,6.31,5.73,5.67,0,*70
1498428460.79,50394,23.38,74002.0,6.31,5.73,5.67,0,*77
1498428462.02,50395,23.38,74002.8,6.35,5.81,5.67,0,*7F
1498428463.26,50396,23.38,74002.5,6.35,5.81,5.67,0,*7C
1498428464.46,50397,23.38,74004.8,6.29,5.73,5.59,0,*70
1498428465.67,50398,23.38,74002.8,6.29,5.73,5.59,0,*7F
1498428466.9,50399,23.38,74000.8,6.31,5.77,5.63,0,*7A
1498428468.09,50400,23.38,74002.3,6.37,5.77,5.67,0,*7F
1498428469.33,50401,23.38,74004.3,6.31,5.73,5.67,0,*7C
1498428470.56,50402,23.38,74006.3,6.35,5.81,5.71,0,*71
1498428471.79,50403,23.38,74004.8,6.31,5.73,5.71,0,*79
1498428473.04,50404,23.38,74002.5,6.31,5.73,5.73,0,*7C
1498428474.29,50405,23.38,74004.0,6.31,5.85,5.73,0,*74
1498428475.54,50406,23.38,74002.8,6.31,5.77,5.73,0,*7A
1498428476.79,50407,23.38,73998.3,6.31,5.73,5.73,0,*7F
1498428478.0,50408,23.38,74004.0,6.35,5.71,5.67,0,*73
1498428479.21,50409,23.38,74000.5,6.35,5.71,5.67,0,*72
1498428480.42,50410,23.38,74000.3,6.35,5.71,5.67,0,*7A
1498428481.62,50411,23.38,74000.3,6.35,5.71,5.71,0,*7C
1498428482.83,50412,23.38,74000.8,6.35,5.71,5.67,0,*78
1498428484.06,50413,23.38,74002.0,6.35,5.77,5.71,0,*78
1498428485.29,50414,23.38,74002.0,6.35,5.81,5.67,0,*71
1498428486.5,50415,23.38,73996.8,6.35,5.71,5.71,0,*78
1498428487.73,50416,23.38,74002.0,6.31,5.73,5.67,0,*7A
1498428488.98,50417,23.38,73996.8,6.35,5.77,5.73,0,*7E
1498428490.24,50418,23.38,74002.3,6.35,5.89,5.81,0,*7D
1498428491.46,50419,23.38,74000.8,6.37,5.81,5.81,0,*76
1498428492.72,50420,23.38,74004.3,6.39,5.85,5.85,0,*72
1498428493.96,50421,23.38,74004.8,6.35,5.77,5.77,0,*7F
1498428495.17,50422,23.38,74000.8,6.31,5.71,5.67,0,*7F
1498428496.42,50423,23.38,74002.0,6.39,5.81,5.73,0,*7C
1498428497.64,50424,23.38,73998.8,6.37,5.81,5.77,0,*71
1498428498.87,50425,23.38,74002.0,6.35,5.81,5.71,0,*74
1498428500.12,50426,23.38,74002.8,6.31,5.77,5.77,0,*7C
1498428501.33,50427,23.38,74000.3,6.37,5.77,5.77,0,*7B
1498428502.58,50428,23.38,74002.0,6.35,5.81,5.77,0,*7F
1498428503.78,50429,23.38,74000.0,6.37,5.77,5.71,0,*73
1498428505.02,50430,23.38,74004.5,6.35,5.77,5.77,0,*7F
1498428506.27,50431,23.38,74000.5,6.35,5.77,5.77,0,*7E
1498428507.46,50432,23.38,74002.3,6.37,5.77,5.71,0,*79
1498428508.72,50433,23.38,74002.0,6.39,5.81,5.73,0,*7D
1498428509.91,50434,23.38,74004.3,6.37,5.77,5.71,0,*7F
1498428511.14,50435,23.38,74002.5,6.35,5.77,5.71,0,*7C
1498428512.34,50436,23.38,74000.3,6.37,5.73,5.71,0,*79
1498428513.54,50437,23.38,74004.0,6.37,5.73,5.67,0,*7F
1498428514.77,50438,23.38,74004.3,6.39,5.73,5.71,0,*79
1498428515.95,50439,23.38,74004.3,6.37,5.67,5.63,0,*70
1498428517.13,50440,23.38,74004.3,6.37,5.67,5.63,0,*7E
1498428518.31,50441,23.38,74002.5,6.37,5.67,5.63,0,*7F
1498428519.51,50442,23.38,73998.3,6.37,5.67,5.55,0,*79
1498428520.72,50443,23.38,74000.0,6.39,5.71,5.59,0,*7D
1498428521.95,50444,23.38,74000.0,6.35,5.67,5.55,0,*7D
1498428523.19,50445,23.38,74000.5,6.35,5.67,5.55,0,*7C
1498428524.39,50446,23.38,74000.0,6.35,5.67,5.63,0,*7A
1498428525.57,50447,23.38,74002.5,6.37,5.71,5.63,0,*7E
1498428526.74,50448,23.38,74002.3,6.37,5.71,5.63,0,*71